Location: Oberwangen
(47.4286°N, 8.9679°E)
Time: 11:25:56
(UTC+00:00)

Cosmos 1816 Rocket - Pass Details

Date: 23 October 2021
Orbit: 952 x 998 km, 82.9° (Epoch: 08 December)

Event Time Altitude Azimuth Distance (km) Brightness Sun altitude
Rises 21:25:52 0° 334° (NNW) 3,650 8.2 -48.3°
Reaches altitude 10° 21:30:05 10° 306° (NW) 2,706 7.3 -48.8°
Enters shadow 21:30:49 11° 299° (WNW) 2,621 7.2 -48.8°
